EW9218 Weather Reports


time (UTC)temp
C
wind
direction
speed
KPH
gust
KPH
rain 1hr
cm
rain 24hr
cm
rain mn
cm
humidity
%
barometer
mb
20200217012511 7 135 6.4 8.0 0.00 0.00 0.00 68 1015.8
20200217011511 7 112 4.8 9.7 0.00 0.00 0.00 69 1015.6
20200217010511 6 112 4.8 12.9 0.00 0.00 0.00 71 1015.5
20200217005511 7 112 3.2 4.8 0.00 0.00 0.00 68 1015.7
20200217004510 8 112 1.6 3.2 0.00 0.00 0.00 64 1015.7
20200217003511 8 112 1.6 3.2 0.00 0.00 0.00 65 1015.7
20200217002511 8 0.0 3.2 0.00 0.00 0.00 63 1015.5
20200217001511 8 0.0 3.2 0.00 0.00 0.00 62 1015.6
20200217000513 9 112 1.6 3.2 0.00 0.00 0.00 60 1015.6
20200216235512 10 112 6.4 11.3 0.00 0.00 0.00 57 1015.6
20200216234510 8 90 6.4 11.3 0.00 0.00 0.00 63 1015.6
20200216233511 8 90 4.8 6.4 0.00 0.00 0.00 66 1015.6
20200216232514 7 0.0 3.2 0.00 0.00 0.00 66 1015.7
20200216231510 8 90 1.6 4.8 0.00 0.00 0.00 65 1015.6
20200216230511 8 112 1.6 4.8 0.00 0.00 0.00 63 1015.4
20200216225511 9 90 4.8 9.7 0.00 0.00 0.00 60 1015.3
20200216224511 8 112 4.8 8.0 0.00 0.00 0.00 62 1015.3
20200216223511 8 112 6.4 11.3 0.00 0.00 0.00 61 1015.1
20200216222511 8 112 6.4 11.3 0.00 0.00 0.00 62 1014.9
20200216221511 8 112 6.4 11.3 0.00 0.00 0.00 64 1014.9
20200216220511 8 112 8.0 14.5 0.00 0.00 0.00 65 1014.9
20200216215510 8 112 9.7 14.5 0.00 0.00 0.00 66 1014.7
20200216214513 7 90 8.0 11.3 0.00 0.00 0.00 68 1014.5
20200216213511 7 112 6.4 11.3 0.00 0.00 0.00 70 1014.6
20200216212511 7 112 9.7 14.5 0.00 0.00 0.00 68 1014.5
20200216211511 7 112 9.7 12.9 0.00 0.00 0.00 69 1014.5
20200216210511 7 112 11.3 14.5 0.00 0.00 0.00 68 1014.4
20200216205511 7 112 11.3 16.1 0.00 0.00 0.00 70 1014.5
20200216204511 7 112 9.7 11.3 0.00 0.00 0.00 71 1014.4
20200216203511 7 112 11.3 14.5 0.00 0.00 0.00 70 1014.5
20200216202511 7 112 11.3 14.5 0.00 0.00 0.00 71 1014.6
20200216201510 7 112 12.9 16.1 0.00 0.00 0.00 71 1014.8
20200216200511 7 135 11.3 16.1 0.00 0.00 0.00 72 1014.9
20200216195510 7 112 9.7 14.5 0.00 0.00 0.00 72 1014.9
20200216194510 7 135 12.9 16.1 0.00 0.00 0.00 73 1015.0
20200216193510 7 90 8.0 14.5 0.00 0.00 0.00 74 1014.8
20200216192510 7 112 4.8 9.7 0.00 0.00 0.00 73 1014.9
20200216191511 7 90 4.8 6.4 0.00 0.00 0.00 73 1015.1
20200216190511 8 90 3.2 6.4 0.00 0.00 0.00 70 1015.2
20200216185510 8 90 4.8 8.0 0.00 0.00 0.00 71 1015.2
20200216184511 8 45 3.2 4.8 0.00 0.00 0.00 69 1015.5
20200216183510 9 0 3.2 4.8 0.00 0.00 0.00 67 1015.6
20200216182511 9 292 3.2 4.8 0.00 0.00 0.00 67 1015.9
20200216181510 10 315 1.6 3.2 0.00 0.00 0.00 66 1015.6
20200216180511 10 315 3.2 4.8 0.00 0.00 0.00 65 1015.3
20200216175510 10 315 4.8 6.4 0.00 0.00 0.00 65 1015.2
20200216174510 10 112 3.2 4.8 0.00 0.00 0.00 63 1014.8
20200216173511 11 112 3.2 4.8 0.00 0.00 0.00 62 1014.9
20200216172510 10 90 3.2 6.4 0.00 0.00 0.00 64 1015.0
20200216171514 11 90 8.0 11.3 0.00 0.00 0.00 63 1014.9
20200216170511 11 112 6.4 11.3 0.00 0.00 0.00 62 1014.9
20200216165510 11 90 4.8 11.3 0.00 0.00 0.00 60 1015.0
20200216164510 11 90 9.7 14.5 0.00 0.00 0.00 60 1015.2
20200216163511 12 112 11.3 17.7 0.00 0.00 0.00 59 1015.1
20200216162510 12 112 16.1 24.1 0.00 0.00 0.00 60 1015.0
20200216161510 12 112 16.1 22.5 0.00 0.00 0.00 59 1015.2
20200216160510 12 112 17.7 22.5 0.00 0.00 0.00 58 1015.3
20200216155510 12 90 17.7 30.6 0.00 0.00 0.00 57 1015.4
20200216154510 12 90 19.3 25.7 0.00 0.00 0.00 56 1015.4
20200216153510 12 112 14.5 22.5 0.00 0.00 0.00 54 1015.7
20200216152510 12 112 12.9 19.3 0.00 0.00 0.00 54 1015.7
20200216151510 12 112 12.9 19.3 0.00 0.00 0.00 56 1016.0
20200216150510 13 112 11.3 16.1 0.00 0.00 0.00 54 1015.9
20200216145510 13 112 14.5 19.3 0.00 0.00 0.00 54 1016.1
20200216144510 13 112 16.1 20.9 0.00 0.00 0.00 54 1016.1
20200216143510 13 112 16.1 22.5 0.00 0.00 0.00 57 1016.3
20200216142510 13 112 16.1 20.9 0.00 0.00 0.00 57 1016.4
20200216141510 13 112 16.1 20.9 0.00 0.00 0.00 56 1016.6
20200216140510 13 112 11.3 19.3 0.00 0.00 0.00 54 1017.2
20200216135510 13 157 6.4 12.9 0.00 0.00 0.00 55 1017.4
20200216134510 13 135 9.7 14.5 0.00 0.00 0.00 56 1017.2
20200216133510 13 135 8.0 17.7 0.00 0.00 0.00 57 1017.3
20200216132510 12 135 8.0 14.5 0.00 0.00 0.00 59 1017.7
20200216131510 12 135 6.4 12.9 0.00 0.00 0.00 60 1017.8
20200216130510 11 135 9.7 16.1 0.00 0.00 0.00 60 1017.9
20200216125510 11 135 6.4 11.3 0.00 0.00 0.00 60 1018.1
20200216124510 11 90 6.4 12.9 0.00 0.00 0.00 61 1018.2
20200216123510 11 112 8.0 11.3 0.00 0.00 0.00 63 1018.5
20200216122510 11 112 3.2 4.8 0.00 0.00 0.00 61 1018.8
20200216121510 10 135 4.8 6.4 0.00 0.00 0.00 62 1018.8
20200216120512 10 112 3.2 9.7 0.00 0.00 0.00 63 1019.0
20200216115510 10 135 4.8 11.3 0.00 0.00 0.00 64 1019.1
20200216114512 9 135 6.4 12.9 0.00 0.00 0.00 63 1019.1
20200216113512 9 90 4.8 6.4 0.00 0.00 0.00 63 1019.2
20200216112512 8 292 1.6 4.8 0.00 0.00 0.00 66 1019.3
20200216111514 8 135 3.2 4.8 0.00 0.00 0.00 62 1019.4
20200216110515 8 0.0 1.6 0.00 0.00 0.00 65 1019.6
20200216105512 8 135 1.6 3.2 0.00 0.00 0.00 67 1019.5
20200216104512 8 135 1.6 3.2 0.00 0.00 0.00 62 1019.6
20200216103512 7 112 1.6 4.8 0.00 0.00 0.00 65 1019.7
20200216102512 6 112 3.2 6.4 0.00 0.00 0.00 67 1019.7
20200216101512 6 90 3.2 11.3 0.00 0.00 0.00 69 1019.7
20200216100512 6 90 1.6 4.8 0.00 0.00 0.00 75 1020.0
20200216095512 5 0.0 3.2 0.00 0.00 0.00 80 1019.8
20200216094512 4 0.0 1.6 0.00 0.00 0.00 83 1019.7
20200216093512 4 337 1.6 3.2 0.00 0.00 0.00 84 1019.6
20200216092512 3 337 3.2 4.8 0.00 0.00 0.00 83 1019.5
20200216090512 3 0.0 0.0 0.00 0.00 0.00 85 1019.5
20200216085511 3 0.0 0.0 0.00 0.00 0.00 86 1019.5
20200216084512 2 0.0 1.6 0.00 0.00 0.00 87 1019.6
20200216083512 2 45 1.6 3.2 0.00 0.00 0.00 87 1019.6
20200216082512 2 0.0 3.2 0.00 0.00 0.00 87 1019.8
20200216081512 2 337 1.6 4.8 0.00 0.00 0.00 86 1019.8
20200216080512 2 0.0 3.2 0.00 0.00 0.00 87 1019.7
20200216075511 2 0.0 1.6 0.00 0.00 0.00 87 1019.7
20200216074513 2 337 1.6 3.2 0.00 0.00 0.00 86 1019.8
20200216073512 1 112 1.6 6.4 0.00 0.00 0.00 86 1019.8
20200216072511 1 112 3.2 6.4 0.00 0.00 0.00 88 1019.6
20200216071529 0 45 1.6 4.8 0.00 0.00 0.00 90 1019.7
20200216070511 0 337 3.2 4.8 0.00 0.00 0.00 90 1019.5
20200216065511 0 0.0 1.6 0.00 0.00 0.00 90 1019.7
20200216064512 0 0.0 1.6 0.00 0.00 0.00 90 1019.5
20200216063512 0 0.0 0.0 0.00 0.00 0.00 90 1019.5
20200216062554 0 337 3.2 4.8 0.00 0.00 0.00 90 1019.8
20200216061515 0 0.0 1.6 0.00 0.00 0.00 89 1019.5
20200216060511 0 0.0 0.0 0.00 0.00 0.00 90 1019.7
20200216055511 0 337 1.6 3.2 0.00 0.00 0.00 89 1019.8
20200216054511 0 0.0 1.6 0.00 0.00 0.00 89 1019.9
20200216053512 0 0.0 1.6 0.00 0.00 0.00 90 1019.9
20200216052512 0 0.0 1.6 0.00 0.00 0.00 89 1019.8
20200216051512 0 315 4.8 6.4 0.00 0.00 0.00 90 1019.8
20200216050511 0 135 1.6 4.8 0.00 0.00 0.00 89 1019.4
20200216045515 0 0.0 1.6 0.00 0.00 0.00 89 1019.6
20200216044511 0 135 3.2 3.2 0.00 0.00 0.00 89 1019.7
20200216043511 0 0.0 1.6 0.00 0.00 0.00 89 1020.4
20200216042511 0 0.0 0.0 0.00 0.00 0.00 89 1020.3
20200216041511 0 135 1.6 3.2 0.00 0.00 0.00 88 1020.3
20200216040512 0 0.0 0.0 0.00 0.00 0.00 88 1020.4
20200216035511 0 0.0 1.6 0.00 0.00 0.00 88 1020.6
20200216034511 0 0.0 1.6 0.00 0.00 0.00 89 1020.6
20200216033511 0 135 1.6 3.2 0.00 0.00 0.00 89 1020.5
20200216032511 0 0.0 1.6 0.00 0.00 0.00 88 1020.5
20200216031511 0 0.0 1.6 0.00 0.00 0.00 88 1020.8
20200216030511 0 135 1.6 4.8 0.00 0.00 0.00 88 1020.7
20200216025511 0 135 1.6 3.2 0.00 0.00 0.00 88 1021.0
20200216024511 1 135 3.2 6.4 0.00 0.00 0.00 88 1020.9
20200216023511 0 135 6.4 11.3 0.00 0.00 0.00 89 1020.9
20200216022511 0 112 3.2 4.8 0.00 0.00 0.00 88 1021.1
20200216021511 1 135 3.2 6.4 0.00 0.00 0.00 88 1021.4
20200216020511 1 0.0 3.2 0.00 0.00 0.00 88 1021.3
20200216015511 1 135 3.2 6.4 0.00 0.00 0.00 88 1021.6
20200216014511 1 135 3.2 6.4 0.00 0.00 0.00 89 1021.8
20200216013511 1 157 3.2 4.8 0.00 0.00 0.00 88 1021.8